View from above orbital plane
|
View from above satellite
|
Ground track
|
The orbit data is extracted from the following two-line orbital elements,
1 107U 61013A 19345.78156815 +.00000520 +00000-0 +48770-4 0 9999
2 107 028.7864 166.9451 0547057 173.2081 187.6272 14.08874486939595
Epoch (UTC): | 11 December 2019 18:45:27 |
Eccentricity: | 0.0547057 |
inclination: | 28.7864° |
perigee height: | 467 km |
apogee height: | 1259 km |
right ascension of ascending node: | 166.9451° |
argument of perigee: | 173.2081° |
revolutions per day: | 14.08874486 |
mean anomaly at epoch: | 187.6272° |
orbit number at epoch: | 93959 |
The dashed part of the orbit path shows where the satellite is in the earth's shadow,
|
|